Change the Weather History Date:

Friday, June 6, 2014

  Actual Average (KNHK) Record (KNHK)
Temperature  
Mean Temperature 66 °F -  
Max Temperature 77 °F 80 °F 90 °F (1984)
Min Temperature 55 °F 62 °F 46 °F (1997)
Cooling Degree Days 1    
Growing Degree Days 16 (Base 50)    
Moisture  
Dew Point 51 °F    
Average Humidity 61    
Maximum Humidity 82    
Minimum Humidity 36    
Precipitation  
Precipitation 0.00 in - - ()
Sea Level Pressure  
Sea Level Pressure 29.94 in    
Wind  
Wind Speed 3 mph (NW)    
Max Wind Speed 9 mph    
Max Gust Speed -    
Visibility 10 miles    
Events      
Averages and records for this station are not official NWS values.
T = Trace of Precipitation, MM = Missing Value Source: NWS Daily Summary

Daily Weather History Graph

Daily Weather History Graph

Search for Another Location

Airport or City:

Trip Planner

Search our weather history database for the weather conditions in past years. The results will help you decide how hot, cold, wet, or windy it might be!

Date:

Astronomy

Jun. 06, 2014 Rise Set
Actual Time 5:42 AM EDT 8:27 PM EDT
Civil Twilight 5:11 AM EDT 8:58 PM EDT
Nautical Twilight 4:32 AM EDT 9:37 PM EDT
Astronomical Twilight 3:48 AM EDT 10:22 PM EDT
Moon 1:49 PM EDT (6/6) 1:28 AM EDT (6/6)
Length of Visible Light 15h 46m
Length of Day
14h 44m
First Quarter, 58% of the Moon is Illuminated
Jun 6
First Quarter
Jun 13
Full
Jun 19
Last Quarter
Jun 27
New
Jul 5
First Quarter

Hourly Weather History & Observations

Time (EDT) Temp. Dew Point Humidity Pressure Visibility Wind Dir Wind Speed Gust Speed Precip Events Conditions
12:14 AM 62.6 °F 53.6 °F 72% 29.88 in 10.0 mi NW 3.5 mph - N/A   Clear
12:34 AM 62.6 °F 53.6 °F 72% 29.88 in 10.0 mi Calm Calm - N/A   Clear
12:54 AM 62.6 °F 53.6 °F 72% 29.88 in 10.0 mi Calm Calm - N/A   Clear
1:14 AM 64.4 °F 51.8 °F 64% 29.88 in 10.0 mi NW 3.5 mph - N/A   Clear
1:34 AM 62.6 °F 51.8 °F 68% 29.88 in 10.0 mi Calm Calm - N/A   Clear
1:54 AM 60.8 °F 51.8 °F 72% 29.88 in 10.0 mi Calm Calm - N/A   Clear
2:14 AM 59.0 °F 53.6 °F 82% 29.88 in 10.0 mi WSW 3.5 mph - N/A   Clear
2:34 AM 59.0 °F 51.8 °F 77% 29.88 in 10.0 mi WNW 3.5 mph - N/A   Clear
2:54 AM 59.0 °F 51.8 °F 77% 29.88 in 10.0 mi Calm Calm - N/A   Clear
3:14 AM 57.2 °F 51.8 °F 82% 29.88 in 10.0 mi WSW 3.5 mph - N/A   Clear
3:34 AM 57.2 °F 51.8 °F 82% 29.88 in 10.0 mi WNW 3.5 mph - N/A   Clear
3:54 AM 59.0 °F 50.0 °F 72% 29.89 in 10.0 mi West 3.5 mph - N/A   Clear
4:14 AM 55.4 °F 50.0 °F 82% 29.89 in 10.0 mi West 4.6 mph - N/A   Clear
4:34 AM 55.4 °F 50.0 °F 82% 29.90 in 10.0 mi West 4.6 mph - N/A   Clear
4:55 AM 57.2 °F 50.0 °F 77% 29.91 in 10.0 mi West 3.5 mph - N/A   Clear
5:15 AM 55.4 °F 50.0 °F 82% 29.91 in 10.0 mi Calm Calm - N/A   Clear
5:35 AM 55.4 °F 50.0 °F 82% 29.91 in 10.0 mi Calm Calm - N/A   Clear
5:55 AM 55.4 °F 50.0 °F 82% 29.92 in 10.0 mi Calm Calm - N/A   Clear
6:15 AM 55.4 °F 50.0 °F 82% 29.93 in 10.0 mi Calm Calm - N/A   Clear
6:35 AM 59.0 °F 51.8 °F 77% 29.93 in 10.0 mi Calm Calm - N/A   Clear
6:55 AM 60.8 °F 51.8 °F 72% 29.94 in 10.0 mi West 3.5 mph - N/A   Clear
7:15 AM 60.8 °F 51.8 °F 72% 29.94 in 10.0 mi WNW 3.5 mph - N/A   Clear
7:35 AM 62.6 °F 50.0 °F 63% 29.95 in 10.0 mi WNW 3.5 mph - N/A   Clear
7:55 AM 64.4 °F 48.2 °F 56% 29.96 in 10.0 mi WNW 4.6 mph - N/A   Clear
8:15 AM 64.4 °F 50.0 °F 59% 29.96 in 10.0 mi NW 3.5 mph - N/A   Clear
8:35 AM 64.4 °F 48.2 °F 56% 29.96 in 10.0 mi WNW 4.6 mph - N/A   Clear
8:55 AM 66.2 °F 48.2 °F 52% 29.95 in 10.0 mi NW 4.6 mph - N/A   Clear
9:15 AM 66.2 °F 46.4 °F 49% 29.95 in 10.0 mi NW 6.9 mph - N/A   Clear
9:35 AM 68.0 °F 48.2 °F 49% 29.96 in 10.0 mi NNW 3.5 mph - N/A   Clear
9:55 AM 68.0 °F 48.2 °F 49% 29.96 in 10.0 mi Calm Calm - N/A   Clear
10:15 AM 68.0 °F 46.4 °F 46% 29.96 in 10.0 mi NW 4.6 mph - N/A   Clear
10:35 AM 69.8 °F 50.0 °F 49% 29.96 in 10.0 mi WNW 3.5 mph - N/A   Clear
11:55 AM 71.6 °F 48.2 °F 43% 29.95 in 10.0 mi WNW 6.9 mph - N/A   Clear
12:15 PM 71.6 °F 48.2 °F 43% 29.95 in 10.0 mi West 5.8 mph - N/A   Clear
12:35 PM 73.4 °F 46.4 °F 38% 29.95 in 10.0 mi WSW 6.9 mph - N/A   Clear
12:55 PM 73.4 °F 48.2 °F 41% 29.95 in 10.0 mi West 4.6 mph - N/A   Clear
1:15 PM 73.4 °F 46.4 °F 38% 29.95 in 10.0 mi West 6.9 mph - N/A   Clear
1:36 PM 73.4 °F 48.2 °F 41% 29.94 in 10.0 mi West 9.2 mph - N/A   Clear
1:56 PM 75.2 °F 48.2 °F 38% 29.93 in 10.0 mi West 6.9 mph - N/A   Clear
2:16 PM 75.2 °F 48.2 °F 38% 29.93 in 10.0 mi WNW 9.2 mph - N/A   Clear
2:36 PM 77.0 °F 48.2 °F 36% 29.93 in 10.0 mi NW 6.9 mph - N/A   Clear
2:56 PM 75.2 °F 48.2 °F 38% 29.93 in 10.0 mi West 3.5 mph - N/A   Clear
3:16 PM 75.2 °F 46.4 °F 36% 29.93 in 10.0 mi NNW 4.6 mph - N/A   Clear
3:36 PM 75.2 °F 46.4 °F 36% 29.92 in 10.0 mi NNW 6.9 mph - N/A   Clear
3:56 PM 75.2 °F 50.0 °F 41% 29.93 in 10.0 mi NE 5.8 mph - N/A   Clear
4:16 PM 73.4 °F 50.0 °F 44% 29.93 in 10.0 mi NE 4.6 mph - N/A   Clear
4:36 PM 75.2 °F 50.0 °F 41% 29.94 in 10.0 mi ENE 5.8 mph - N/A   Clear
4:56 PM 73.4 °F 51.8 °F 47% 29.94 in 10.0 mi ENE 5.8 mph - N/A   Clear
5:16 PM 73.4 °F 51.8 °F 47% 29.94 in 10.0 mi NE 6.9 mph - N/A   Clear
5:36 PM 73.4 °F 51.8 °F 47% 29.95 in 10.0 mi East 3.5 mph - N/A   Clear
5:56 PM 73.4 °F 51.8 °F 47% 29.96 in 10.0 mi NNE 3.5 mph - N/A   Clear
6:16 PM 73.4 °F 51.8 °F 47% 29.95 in 10.0 mi ENE 3.5 mph - N/A   Clear
6:36 PM 73.4 °F 51.8 °F 47% 29.96 in 10.0 mi ENE 4.6 mph - N/A   Clear
6:56 PM 71.6 °F 51.8 °F 50% 29.96 in 10.0 mi Calm Calm - N/A   Clear
7:16 PM 71.6 °F 53.6 °F 53% 29.96 in 10.0 mi Calm Calm - N/A   Clear
7:36 PM 71.6 °F 51.8 °F 50% 29.97 in 10.0 mi NE 3.5 mph - N/A   Clear
7:56 PM 69.8 °F 53.6 °F 56% 29.97 in 10.0 mi Calm Calm - N/A   Clear
8:16 PM 66.2 °F 53.6 °F 64% 29.97 in 10.0 mi Calm Calm - N/A   Clear
8:36 PM 62.6 °F 53.6 °F 72% 29.97 in 10.0 mi Calm Calm - N/A   Clear
8:56 PM 64.4 °F 53.6 °F 68% 29.98 in 10.0 mi Calm Calm - N/A   Clear
9:16 PM 62.6 °F 53.6 °F 72% 29.98 in 10.0 mi Calm Calm - N/A   Clear
9:36 PM 62.6 °F 53.6 °F 72% 29.98 in 10.0 mi Calm Calm - N/A   Clear
9:57 PM 60.8 °F 53.6 °F 77% 30.00 in 10.0 mi Calm Calm - N/A   Clear
10:17 PM 60.8 °F 53.6 °F 77% 30.01 in 10.0 mi Calm Calm - N/A   Clear
10:37 PM 60.8 °F 53.6 °F 77% 30.01 in 10.0 mi Calm Calm - N/A   Clear
10:57 PM 59.0 °F 53.6 °F 82% 30.01 in 10.0 mi Calm Calm - N/A   Clear
11:17 PM 59.0 °F 53.6 °F 82% 30.00 in 10.0 mi Calm Calm - N/A   Clear
11:37 PM 59.0 °F 53.6 °F 82% 30.00 in 10.0 mi Calm Calm - N/A   Clear
11:57 PM 59.0 °F 53.6 °F 82% 30.00 in 10.0 mi Calm Calm - N/A   Clear